Tracking 27422 objects as of 30-May-2023
HD Live streaming from Space Station
objects crossing your sky now

STARLINK 1060

Track STARLINK 1060 now!
10-day predictions
STARLINK 1060 is classified as:


NORAD ID: 44765
Int'l Code: 2019-074BE
Perigee: 553.6 km
Apogee: 555.1 km
Inclination: 53.1 °
Period: 95.6 minutes
Semi major axis: 6925 km
RCS: Unknown
Launch date: November 11, 2019
Source: United States (US)
Launch site: AIR FORCE EASTERN TEST RANGE (AFETR)
Your satellite tracking list
Your tracking list is empty




NASA's NSSDC Master Catalog

Two Line Element Set (TLE):
1 44765U 19074BE  23150.10041170  .00005089  00000-0  36035-3 0  9994
2 44765  53.0547  81.2877 0001089  94.7626 265.3487 15.06396166195718
Source of the keplerian elements: AFSPC